Terminal Aerodrome Forecast
Issued by NWS

Home | Current Version | Previous Version | Text Only | Print | Product List | Glossary On
Versions: 1 2 3 4 5 6 7 8 9 10 11 12 13 14 15 16 17 18 19 20 21
000
FTUS43 KGRR 220500
TAFJXN
TAF
KJXN 220540Z 2206/2306 14008KT 5SM HZ SCT050
     FM221500 12008KT P6SM BKN250
     FM230300 10010KT 4SM -RA BR OVC025=

USA.gov is the U.S. government's official web portal to all federal, state and local government web resources and services.